CZ-6A R/B, 60214

Orbit data source: Space-Track

CZ-6A R/B, 60214 is space debris in SSO originally from a launch on Thu, 04 Jul 2024 UTC launched from the Taiyaun Space Center, China (TSC). Debris objects in space refer to the collection of defunct objects orbiting the Earth. Examples of debris include non-operational satellites, rocket bodies, and fragments generated from explosions, collisions, or faulty payload assembly.

Loading next visibility...
Identifier
60214, 2024-126D
Orbit
SSO
Country
Flag of CNCN / PRC
Related business
Manufacturer
SAST
Mission
Spacecraft
Bus & Motor
CZ-6A STAGE 2, YF-115
Mass
~6,000 kg wet, ~6,000 kg dry
Launch date (UTC)
2024-07-04 (1 year ago)
Launch vehicle
Unknown
Launch site
Taiyaun Space Center, China (TSC)
Object type
Payload
Rocket body
Debris
Shape & HBR
Unknown shape, 5.5 m
Radar Cross Section
Large (>1 m²)

Expand to show TLE details & history
Last TLE update: 8 hours ago

TLE from 8 hours ago
0 CZ-6A R/B
1 60214U 24126D   25308.05115844  .00004369  00000-0  24437-3 0  9999
2 60214  97.8001 329.1924 0071149 169.6223 190.6495 15.11860255 73391
Epoch: 2025-11-04T01:13Z
TLE epoch observation values (Epoch: 2025-11-04T01:13:40.089Z)
Latitude
-0.00004°
Longitude
-92.76837°
Altitude
581.925 km
Speed
7.543 km/s
True Right ascension
21h 56m 46s
True Declination
0° 00' 00"
Sunlit
Object was in daylight at epoch
Visualization orbit readout
Latitude
Unknown
Longitude
Unknown
Altitude
Unknown
Speed
Unknown
Apparent Right ascension
Unknown
Apparent Declination
Unknown
Sunlit
N/A
Visualization observer readout
Local Sidereal Time
05:00:58
Azimuth
Unknown
Elevation
Unknown
Doppler factor
Unknown
Orbital elements
Apogee altitude
576.654 km
Perigee altitude
478.388 km
Semi-major axis
6,905.658 km
Eccentricity
0.00711
Inclination
97.8001°
RAAN
329.1924°
Arg. of periapsis
169.6223°
True anomaly
190.50014°
Mean anomaly
190.6495°
Eccentric anomaly
190.57469°
Mean motion
3.78212 °/min
Orbital period
95.18 mins
BSTAR
0.00024437
Loading maneuver chart data...
Computing Atmospheric mass density...
Loading historical data...
Loading historical data...
Loading historical data...
Loading historical data...
Loading historical data...
Loading historical data...
Loading historical data...
Other satellites on launch #126 in the year 2024 (2024-07-04 UTC)

Documentation

Showing up to 5 results
|